AMX218 MMMX-MMLO

Flight info

Callsign AMX218
Flight time 0h 36m
Altitude 28000
Route SEBON3A SEBON UT125 MLM UJ40 OMINA OMINA1D
Aircraft B738/M-SDE2E3FGHIRWXY/LB1

Departure

Time 2026-05-05 03:30
Airport Mexico City Benito Juárez International Airport (MMMX)

Arrival

Time 2026-05-05 04:06
Airport Guanajuato International Airport (MMLO)
Time Latitude Longitude Altitude Speed Heading
2026-05-05 03:07 19.42240 -99.07929 7302 ft 0 kts 209°
2026-05-05 03:20 19.42241 -99.07928 7302 ft 1 kts 209°
2026-05-05 03:21 19.42255 -99.07919 7302 ft 3 kts 220°
2026-05-05 03:21 19.42269 -99.07904 7302 ft 3 kts 245°
2026-05-05 03:21 19.42273 -99.07886 7302 ft 3 kts 284°
2026-05-05 03:21 19.42267 -99.07872 7302 ft 1 kts 309°
2026-05-05 03:22 19.42264 -99.07868 7302 ft 0 kts 309°
2026-05-05 03:24 19.42268 -99.07873 7302 ft 2 kts 309°
2026-05-05 03:24 19.42284 -99.07894 7302 ft 6 kts 309°
2026-05-05 03:25 19.42324 -99.07943 7302 ft 11 kts 311°
2026-05-05 03:25 19.42375 -99.08016 7302 ft 14 kts 294°
2026-05-05 03:25 19.42406 -99.08112 7302 ft 14 kts 288°
2026-05-05 03:25 19.42408 -99.08205 7302 ft 11 kts 282°
2026-05-05 03:26 19.42459 -99.08250 7302 ft 10 kts 331°
2026-05-05 03:26 19.42520 -99.08285 7302 ft 11 kts 331°
2026-05-05 03:26 19.42570 -99.08353 7302 ft 12 kts 294°
2026-05-05 03:26 19.42603 -99.08432 7302 ft 12 kts 294°
2026-05-05 03:27 19.42645 -99.08531 7302 ft 17 kts 294°
2026-05-05 03:27 19.42675 -99.08654 7303 ft 18 kts 274°
2026-05-05 03:27 19.42683 -99.08784 7302 ft 17 kts 274°
2026-05-05 03:27 19.42691 -99.08906 7302 ft 17 kts 274°
2026-05-05 03:28 19.42698 -99.09025 7302 ft 12 kts 274°
2026-05-05 03:28 19.42756 -99.09050 7302 ft 12 kts 42°
2026-05-05 03:28 19.42770 -99.09030 7302 ft 0 kts 58°
2026-05-05 03:29 19.42827 -99.08925 7302 ft 43 kts 60°
2026-05-05 03:29 19.43078 -99.08477 7300 ft 97 kts 58°
2026-05-05 03:29 19.43511 -99.07714 7303 ft 143 kts 59°
2026-05-05 03:29 19.44099 -99.06681 7308 ft 182 kts 60°
2026-05-05 03:30 19.44796 -99.05545 7785 ft 181 kts 55°
2026-05-05 03:30 19.45499 -99.04439 8404 ft 185 kts 57°
2026-05-05 03:30 19.46226 -99.03291 8861 ft 189 kts 56°
2026-05-05 03:30 19.46975 -99.02128 9056 ft 198 kts 54°
2026-05-05 03:31 19.47783 -99.00929 9290 ft 196 kts 56°
2026-05-05 03:31 19.48541 -98.99734 9677 ft 193 kts 56°
2026-05-05 03:31 19.49278 -98.98560 10055 ft 191 kts 55°
2026-05-05 03:31 19.49993 -98.97420 10399 ft 184 kts 60°
2026-05-05 03:32 19.50312 -98.96098 10436 ft 194 kts 102°
2026-05-05 03:32 19.49682 -98.94802 10256 ft 212 kts 133°
2026-05-05 03:32 19.48398 -98.93984 10282 ft 224 kts 166°
2026-05-05 03:32 19.46796 -98.93953 10232 ft 243 kts 189°
2026-05-05 03:33 19.45219 -98.94593 10455 ft 251 kts 216°
2026-05-05 03:33 19.43932 -98.95935 10560 ft 265 kts 230°
2026-05-05 03:33 19.42786 -98.97481 10916 ft 273 kts 232°
2026-05-05 03:33 19.41674 -98.99181 11140 ft 286 kts 234°
2026-05-05 03:34 19.40528 -99.00965 11377 ft 300 kts 234°
2026-05-05 03:34 19.39305 -99.02809 11707 ft 308 kts 233°
2026-05-05 03:34 19.38057 -99.04651 12264 ft 309 kts 233°
2026-05-05 03:34 19.37028 -99.06663 12641 ft 314 kts 255°
2026-05-05 03:35 19.36615 -99.08925 13213 ft 313 kts 261°
2026-05-05 03:35 19.36282 -99.11219 13610 ft 319 kts 261°
2026-05-05 03:35 19.36066 -99.12769 13914 ft 320 kts 262°
2026-05-05 03:35 19.35742 -99.15104 14382 ft 321 kts 262°
2026-05-05 03:36 19.35411 -99.17452 14775 ft 324 kts 262°
2026-05-05 03:36 19.35073 -99.19817 15134 ft 327 kts 262°
2026-05-05 03:36 19.34727 -99.22212 15507 ft 330 kts 261°
2026-05-05 03:36 19.34377 -99.24626 15885 ft 334 kts 261°
2026-05-05 03:37 19.34022 -99.27061 16319 ft 336 kts 261°
2026-05-05 03:37 19.33666 -99.29510 16776 ft 337 kts 262°
2026-05-05 03:37 19.33306 -99.31974 17269 ft 340 kts 262°
2026-05-05 03:37 19.32940 -99.34459 17725 ft 343 kts 261°
2026-05-05 03:38 19.32569 -99.36965 18187 ft 346 kts 261°
2026-05-05 03:38 19.32395 -99.39506 18553 ft 348 kts 279°
2026-05-05 03:38 19.32957 -99.41987 18985 ft 346 kts 288°
2026-05-05 03:38 19.33659 -99.44424 19402 ft 347 kts 288°
2026-05-05 03:39 19.34381 -99.46872 19769 ft 350 kts 288°
2026-05-05 03:39 19.35105 -99.49339 20150 ft 351 kts 288°
2026-05-05 03:39 19.35823 -99.51816 20525 ft 353 kts 287°
2026-05-05 03:39 19.36537 -99.54315 20902 ft 355 kts 287°
2026-05-05 03:40 19.37247 -99.56823 21259 ft 357 kts 287°
2026-05-05 03:40 19.37946 -99.59321 21629 ft 358 kts 284°
2026-05-05 03:40 19.38236 -99.61940 21976 ft 361 kts 267°
2026-05-05 03:40 19.38074 -99.64606 22305 ft 364 kts 265°
2026-05-05 03:41 19.37860 -99.67284 22624 ft 366 kts 264°
2026-05-05 03:41 19.37651 -99.69981 22946 ft 368 kts 265°
2026-05-05 03:41 19.37461 -99.72687 23253 ft 369 kts 265°
2026-05-05 03:41 19.37287 -99.75405 23574 ft 371 kts 265°
2026-05-05 03:42 19.37117 -99.78143 23822 ft 375 kts 265°
2026-05-05 03:42 19.36945 -99.80903 24036 ft 376 kts 265°
2026-05-05 03:42 19.36773 -99.83676 24269 ft 378 kts 265°
2026-05-05 03:42 19.36594 -99.86460 24499 ft 379 kts 265°
2026-05-05 03:43 19.36414 -99.89256 24733 ft 381 kts 265°
2026-05-05 03:43 19.36235 -99.92054 24963 ft 382 kts 265°
2026-05-05 03:43 19.36056 -99.94867 25197 ft 383 kts 265°
2026-05-05 03:43 19.35878 -99.97691 25466 ft 384 kts 265°
2026-05-05 03:44 19.35701 -100.00521 25658 ft 388 kts 265°
2026-05-05 03:44 19.35522 -100.03402 25725 ft 395 kts 265°
2026-05-05 03:44 19.35337 -100.06333 25818 ft 402 kts 265°
2026-05-05 03:44 19.35148 -100.09267 25903 ft 408 kts 265°
2026-05-05 03:45 19.35243 -100.12284 25926 ft 414 kts 282°
2026-05-05 03:45 19.36210 -100.15160 26027 ft 417 kts 301°
2026-05-05 03:45 19.37881 -100.17684 26153 ft 420 kts 307°
2026-05-05 03:45 19.39689 -100.20157 26196 ft 427 kts 308°
2026-05-05 03:46 19.41535 -100.22643 26263 ft 432 kts 308°
2026-05-05 03:46 19.43402 -100.25162 26326 ft 437 kts 308°
2026-05-05 03:46 19.45280 -100.27715 26417 ft 442 kts 307°
2026-05-05 03:46 19.47173 -100.30307 26455 ft 447 kts 307°
2026-05-05 03:47 19.49078 -100.32931 26509 ft 452 kts 307°
2026-05-05 03:47 19.51001 -100.35585 26644 ft 454 kts 307°
2026-05-05 03:47 19.52918 -100.38236 26930 ft 452 kts 307°
2026-05-05 03:47 19.54799 -100.40841 27255 ft 449 kts 307°
2026-05-05 03:48 19.56696 -100.43469 27574 ft 447 kts 307°
2026-05-05 03:48 19.58584 -100.46084 27862 ft 446 kts 307°
2026-05-05 03:48 19.60467 -100.48693 28034 ft 446 kts 307°
2026-05-05 03:48 19.62359 -100.51312 28015 ft 448 kts 307°
2026-05-05 03:49 19.66178 -100.56599 28025 ft 454 kts 307°
2026-05-05 03:49 19.69910 -100.62054 28017 ft 460 kts 299°
2026-05-05 03:50 19.72403 -100.68316 28025 ft 464 kts 289°
2026-05-05 03:50 19.74533 -100.74823 28070 ft 468 kts 289°
2026-05-05 03:51 19.76724 -100.81356 28126 ft 471 kts 289°
2026-05-05 03:51 19.78972 -100.87917 28182 ft 474 kts 290°
2026-05-05 03:52 19.81238 -100.94520 28231 ft 477 kts 290°
2026-05-05 03:52 19.82375 -100.97850 27925 ft 484 kts 290°
2026-05-05 03:52 19.83878 -101.01052 27488 ft 488 kts 306°
2026-05-05 03:53 19.86185 -101.03698 27096 ft 491 kts 320°
2026-05-05 03:53 19.89019 -101.05627 26600 ft 492 kts 336°
2026-05-05 03:53 19.92211 -101.06921 26160 ft 492 kts 340°
2026-05-05 03:53 19.95448 -101.08115 25615 ft 492 kts 341°
2026-05-05 03:54 19.98659 -101.09283 25094 ft 481 kts 341°
2026-05-05 03:54 20.01787 -101.10435 24589 ft 470 kts 340°
2026-05-05 03:54 20.04850 -101.11585 24093 ft 464 kts 340°
2026-05-05 03:54 20.07877 -101.12737 23588 ft 460 kts 340°
2026-05-05 03:55 20.10867 -101.13884 23040 ft 455 kts 340°
2026-05-05 03:55 20.13819 -101.15021 22540 ft 449 kts 340°
2026-05-05 03:55 20.16739 -101.16146 22045 ft 444 kts 340°
2026-05-05 03:55 20.19621 -101.17257 21585 ft 439 kts 340°
2026-05-05 03:56 20.22480 -101.18359 21136 ft 433 kts 341°
2026-05-05 03:56 20.25274 -101.19435 20701 ft 421 kts 341°
2026-05-05 03:56 20.27998 -101.20486 20295 ft 412 kts 341°
2026-05-05 03:56 20.30703 -101.21527 19898 ft 417 kts 341°
2026-05-05 03:57 20.33444 -101.22579 19455 ft 419 kts 341°
2026-05-05 03:57 20.36185 -101.23631 19031 ft 417 kts 341°
2026-05-05 03:57 20.38922 -101.24686 18497 ft 418 kts 341°
2026-05-05 03:57 20.41654 -101.25740 17995 ft 417 kts 342°
2026-05-05 03:58 20.44443 -101.26505 17282 ft 415 kts 356°
2026-05-05 03:58 20.47337 -101.26593 16486 ft 415 kts
2026-05-05 03:58 20.50230 -101.26619 15649 ft 415 kts
2026-05-05 03:58 20.53074 -101.26662 14831 ft 414 kts 359°
2026-05-05 03:59 20.55954 -101.26728 14010 ft 414 kts 359°
2026-05-05 03:59 20.58818 -101.26813 13459 ft 405 kts 358°
2026-05-05 03:59 20.61597 -101.26904 12996 ft 395 kts 358°
2026-05-05 03:59 20.64311 -101.26994 12492 ft 386 kts 357°
2026-05-05 04:00 20.66956 -101.27080 12012 ft 378 kts 357°
2026-05-05 04:00 20.69458 -101.27161 11562 ft 372 kts 356°
2026-05-05 04:00 20.72012 -101.27241 11261 ft 359 kts 356°
2026-05-05 04:00 20.74453 -101.27319 11048 ft 344 kts 356°
2026-05-05 04:01 20.76802 -101.27396 10831 ft 331 kts 355°
2026-05-05 04:01 20.79053 -101.27532 10611 ft 317 kts 346°
2026-05-05 04:01 20.81054 -101.28336 10411 ft 299 kts 325°
2026-05-05 04:01 20.82575 -101.29685 10215 ft 272 kts 311°
2026-05-05 04:02 20.83806 -101.30909 10178 ft 242 kts 322°
2026-05-05 04:02 20.84986 -101.32006 10021 ft 216 kts 306°
2026-05-05 04:02 20.85856 -101.33307 9657 ft 211 kts 299°
2026-05-05 04:02 20.86656 -101.34554 9296 ft 213 kts 306°
2026-05-05 04:03 20.87711 -101.35733 8855 ft 216 kts 314°
2026-05-05 04:03 20.88832 -101.36761 8507 ft 214 kts 315°
2026-05-05 04:03 20.89970 -101.37821 8214 ft 208 kts 311°
2026-05-05 04:03 20.90926 -101.38918 7897 ft 199 kts 308°
2026-05-05 04:04 20.91822 -101.40055 7533 ft 197 kts 308°
2026-05-05 04:04 20.92769 -101.41036 7423 ft 181 kts 315°
2026-05-05 04:04 20.93665 -101.41872 7454 ft 161 kts 309°
2026-05-05 04:04 20.94407 -101.42704 7265 ft 150 kts 307°
2026-05-05 04:05 20.95148 -101.43504 7106 ft 155 kts 308°
2026-05-05 04:05 20.95863 -101.44358 6818 ft 151 kts 304°
2026-05-05 04:05 20.96618 -101.45146 6509 ft 153 kts 315°
2026-05-05 04:05 20.97374 -101.45959 6271 ft 157 kts 313°
2026-05-05 04:06 20.98144 -101.46803 6029 ft 157 kts 315°
2026-05-05 04:06 20.98860 -101.47582 5973 ft 133 kts 314°
2026-05-05 04:06 20.99346 -101.48117 5970 ft 62 kts 314°
2026-05-05 04:06 20.99585 -101.48379 5971 ft 37 kts 313°
2026-05-05 04:07 20.99707 -101.48517 5973 ft 9 kts 306°
2026-05-05 04:07 20.99703 -101.48579 5971 ft 11 kts 231°
2026-05-05 04:07 20.99650 -101.48634 5970 ft 7 kts 220°
2026-05-05 04:07 20.99641 -101.48642 5971 ft 5 kts 221°
2026-05-05 04:08 20.99586 -101.48651 5971 ft 10 kts 149°
2026-05-05 04:08 20.99514 -101.48577 5971 ft 17 kts 134°
2026-05-05 04:08 20.99436 -101.48491 5971 ft 16 kts 134°
2026-05-05 04:08 20.99349 -101.48394 5972 ft 20 kts 134°
2026-05-05 04:09 20.99255 -101.48289 5971 ft 19 kts 134°
2026-05-05 04:09 20.99161 -101.48185 5970 ft 19 kts 134°
2026-05-05 04:09 20.99069 -101.48088 5971 ft 18 kts 135°
2026-05-05 04:09 20.98974 -101.47983 5970 ft 23 kts 134°
2026-05-05 04:10 20.98866 -101.47863 5970 ft 22 kts 134°
2026-05-05 04:10 20.98784 -101.47795 5973 ft 9 kts 179°
2026-05-05 04:10 20.98742 -101.47820 5973 ft 5 kts 205°
2026-05-05 04:10 20.98713 -101.47838 5970 ft 3 kts 221°
2026-05-05 04:11 20.98699 -101.47851 5973 ft 3 kts 223°
2026-05-05 04:11 20.98686 -101.47865 5972 ft 3 kts 224°
2026-05-05 04:11 20.98681 -101.47870 5971 ft 1 kts 224°